Powrót do katalogu

STARLINK-36615

AktywnyŁącznośćVLEO
NORAD 67621·PAYLOAD·🇺🇸 United States

Wystrzelony Jan 30, 2026 z Cape Canaveral Space Force Station

Loading…

Następne Przeloty (najbliższe 24 godziny)

TLE

ŚwieżeSource: CelesTrak SupGP

Epoka: Sep 15, 2026, 03:29 UTC

1 67621C 26020E   26258.14562500  .00057566  00000+0  20850-2 0  2581
2 67621  43.0012 150.1669 0001363 271.7373 120.3108 15.27550648    14

Śledź STARLINK-36615 w czasie rzeczywistym z AllMySat

Download on the App Store